Погода в Мичуринске

Россия / Республика Башкортостан     54°56′00″N   54°08′35″E
темп.,
°C
ветер,
м/с
пор.,
м/с
влажн.,
%
обл.,
%
осадки,
мм/ч
давл.,
гПа
погр.,
м
8 марта, пн
пн823:00−15ююз479791 0.1 1010125
02:00−14ю5139599 0.0 1007280
05:00−11ю81594100 0.4 1004544
08:00−10ю91691100 0.8 1000760
11:00−6ююз101693100 1.2 9991058
14:00−2зюз101582100 0.5 9981431
17:00−4зюз8128076 0.6 1000973
20:00−7юз6148667 0.1 1003471
9 марта, вт
вт923:00−7ююз4119267 0.1 1003325
02:00−7ююз3795100 0.1 1001194
05:00−7зюз81593100 0.5 1003639
08:00−12з5119591 0.1 1006201
11:00−10зюз579378 0.1 1009265
14:00−8зюз469171 0.0 1011416
17:00−7зюз239081 0.0 1010419
20:00−13зюз1195100 0.0 101021
10 марта, ср
ср1023:00−13св1193100 0.0 101021
02:00−12ссв3598100 0.0 1007102
05:00−13с4896100 0.4 1005238
08:00−14ссз5995100 0.9 1004298
11:00−13ссз71194100 1.3 1005444
14:00−15ссз71194100 0.1 1008477
17:00−17ссз71194100 0.3 1010470
20:00−19ссз71390100 0.1 1013514
11 марта, чт
чт1123:00−20ссз61291100 0.1 1014561
02:00−22сз6119698 0.0 1015348
05:00−25сз5109899 0.0 1017254
08:00−26сз51098100 0.0 1019216
11:00−23сз579799 0.0 1021251
14:00−19зсз579492 0.0 1021377
17:00−18з589493 0.0 1022394
20:00−19з4997100 0.1 1024296
12 марта, пт
пт1223:00−19з499794 0.1 1025199
02:00−18зюз489791 0.1 1026148
05:00−17зюз589689 0.1 1027175
08:00−17з489898 0.1 1029149
11:00−14зсз469388 0.1 1031235
14:00−10зсз46890 0.0 1031354
17:00−9зсз46870 0.0 1031415
20:00−14зсз34930 0.0 103246